Other Public Products
Issued by NWS Charleston, SC

Current Version | Previous Version | Graphics & Text | Print | Product List | Glossary On
Versions: 1 2 3 4 5 6 7 8 9 10 11 12 13 14 15 16 17 18 19 20 21 22 23 24 25 26 27 28 29 30 31 32 33 34 35 36 37 38 39 40 41 42 43 44 45 46 47 48 49 50
158
FPUS82 KCHS 181812
OPUCHS

TEST...KCHS/KSAV Gateway Observations...TEST
National Weather Service Charleston SC
100 PM EST SAT FEB 18 2017

NOTE: "fair" indicates few or no clouds below 12,000 feet with no
significant weather and/or obstructions to visibility.

SCZ050-WAZ558-NCZ071-TXZ119-213-PAZ071-DCZ001-FLZ074-172-MI076-
NYZ176-178-MAZ016-IL014-TNZ027-NJZ106-GAZ044-MD014-181900-
...Gateway Observations for Charleston International...

CITY           SKY/WX    TMP DP  RH WIND       PRES   REMARKS
Chas Airport   CLOUDY    69  40  34 SW14      30.01S
6HR MIN TEMP:  48; 6HR MAX TEMP:  70;

Seattle        LGT RAIN  43  41  93 N5        29.43F
6HR MIN TEMP:  42; 6HR MAX TEMP:  43; 6HR PCP:  0.07;

Charlotte      PTSUNNY   67  29  24 SW12      29.93F
6HR MIN TEMP:  40; 6HR MAX TEMP:  67;

Dallas DFW     MOSUNNY   72  53  51 S6G16     29.77F
6HR MIN TEMP:  59; 6HR MAX TEMP:  72;

Dallas Love    MOSUNNY   74  51  44 S10G16    29.78F
6HR MIN TEMP:  59; 6HR MAX TEMP:  74;

Philladelphia  MOSUNNY   61  31  32 SW16      29.76F
6HR MIN TEMP:  30; 6HR MAX TEMP:  61;

Wash National  CLOUDY    57  33  40 S10       29.81F
6HR MIN TEMP:  34; 6HR MAX TEMP:  57;

Baltimore      CLOUDY    68  31  25 W10       29.78F
6HR MIN TEMP:  27; 6HR MAX TEMP:  68;

Miami          CLOUDY    77  63  61 E8        30.04F
6HR MIN TEMP:  63; 6HR MAX TEMP:  79;

Detroit        MOSUNNY   62  40  44 W15       29.66F
6HR MIN TEMP:  41; 6HR MAX TEMP:  63;

Newark         MOSUNNY   59  30  33 SW14      29.72F
6HR MIN TEMP:  30; 6HR MAX TEMP:  59;

Laguardia      MOSUNNY   56  29  35 SW12      29.72F
6HR MIN TEMP:  38; 6HR MAX TEMP:  56;

J F K          MOSUNNY   50  37  61 S8        29.75F
6HR MIN TEMP:  33; 6HR MAX TEMP:  50;

Boston Logan   PTSUNNY   45  25  45 S20       29.65F
6HR MIN TEMP:  27; 6HR MAX TEMP:  46;

Ft. Lauderdale PTSUNNY   77  65  66 SE12      30.03F
6HR MIN TEMP:  64; 6HR MAX TEMP:  79;

Chicago O`Hare MOSUNNY   65  36  34 W8        29.72F
6HR MIN TEMP:  43; 6HR MAX TEMP:  65;

Chicago Midway MOSUNNY   64  36  35 NW7       29.73F
6HR MIN TEMP:  45; 6HR MAX TEMP:  64;

Houston Bush   MOSUNNY   77  64  64 S8G16     29.85F
6HR MIN TEMP:  62; 6HR MAX TEMP:  77;

Houston Hobby  MOSUNNY   77  65  66 SW9       29.84F
6HR MIN TEMP:  62; 6HR MAX TEMP:  77;

Nashville      LGT RAIN  51  48  89 S10       29.94F
6HR MIN TEMP:  49; 6HR MAX TEMP:  53; 6HR PCP:  0.06;

Atlanta        CLOUDY    54  47  77 CALM      29.97F
6HR MIN TEMP:  49; 6HR MAX TEMP:  54; 6HR PCP:  0.06;


$$

GAZ044-118-TXZ119-213-NCZ071-DCZ001-MDZ014-506-PAZ021-071-NJZ106-
NYZ176-178-MAZ106-OHZ011-021-055-MIZ076-KYZ091-ILZ014-INZ047-
MNZ060-181900-
...Gateway Observations for Savannah International...

CITY           SKY/WX    TMP DP  RH WIND       PRES   REMARKS
Savannah Arpt  CLOUDY    66  43  43 SW8       30.04F
6HR MIN TEMP:  51; 6HR MAX TEMP:  67;

Atlanta        CLOUDY    54  47  77 CALM      29.97F
6HR MIN TEMP:  49; 6HR MAX TEMP:  54; 6HR PCP:  0.06;

Charlotte      PTSUNNY   67  29  24 SW12      29.93F
6HR MIN TEMP:  40; 6HR MAX TEMP:  67;

Dallas DFW     MOSUNNY   72  53  51 S6G16     29.77F
6HR MIN TEMP:  59; 6HR MAX TEMP:  72;

Houston Bush   MOSUNNY   77  64  64 S8G16     29.85F
6HR MIN TEMP:  62; 6HR MAX TEMP:  77;

Wash National  CLOUDY    57  33  40 S10       29.81F
6HR MIN TEMP:  34; 6HR MAX TEMP:  57;

Wash Dulles    CLOUDY    66  31  27 S7        29.80F
6HR MIN TEMP:  27; 6HR MAX TEMP:  66;

Baltimore      CLOUDY    68  31  25 W10       29.78F
6HR MIN TEMP:  27; 6HR MAX TEMP:  68;

Philadelphia   MOSUNNY   61  31  32 SW16      29.76F
6HR MIN TEMP:  30; 6HR MAX TEMP:  61;

Newark         MOSUNNY   59  30  33 SW14      29.72F
6HR MIN TEMP:  30; 6HR MAX TEMP:  59;

Laguardia      MOSUNNY   56  29  35 SW12      29.72F
6HR MIN TEMP:  38; 6HR MAX TEMP:  56;

J F K          MOSUNNY   50  37  61 S8        29.75F
6HR MIN TEMP:  33; 6HR MAX TEMP:  50;

Boston         PTSUNNY   45  25  45 S20       29.65F
6HR MIN TEMP:  27; 6HR MAX TEMP:  46;

Pittsburg      PTSUNNY   62  32  32 SW13G20   29.76F
6HR MIN TEMP:  48; 6HR MAX TEMP:  63;

Akron          MOSUNNY   64  38  38 SW16      29.75F
6HR MIN TEMP:  41; 6HR MAX TEMP:  64;

Cleveland      MOSUNNY   66  38  35 SW13      29.73F
6HR MIN TEMP:  50; 6HR MAX TEMP:  66;

Cincinnati     LGT RAIN  58  40  51 SW10      29.84S
6HR MIN TEMP:  45; 6HR MAX TEMP:  59; 6HR PCP: TRACE;

Columbus       SUNNY     62  39  42 W14       29.80F
Detroit        MOSUNNY   62  40  44 W15       29.66F
6HR MIN TEMP:  41; 6HR MAX TEMP:  63;

Chicago O`Hare MOSUNNY   65  36  34 W8        29.72F
6HR MIN TEMP:  43; 6HR MAX TEMP:  65;

Minneapolis    PTSUNNY   53  34  48 CALM      29.78R
6HR MIN TEMP:  34; 6HR MAX TEMP:  54;

Indianapolis   PTSUNNY   63  40  42 SW12      29.80F
6HR MIN TEMP:  43; 6HR MAX TEMP:  63;


$$




USA.gov is the U.S. government's official web portal to all federal, state and local government web resources and services.